User: anonymous   Login
Location: Champaign/Urbana Astronomical Society Observatory
(40.0333°N, 88.2833°W)
Time: 07:55:21
(UTC-05:00)
Language:

AIST 2D - Orbit

View from above orbital plane
View from above orbital plane
View from above satellite
View from above satellite

Ground track
Ground track

The orbit data is extracted from the following two-line orbital elements,

1 41465U 16026B   19290.07547287  .00001336  00000-0  42772-4 0  9995
2 41465  97.1747 182.1299 0012981  53.0183  54.4052 15.34034192193959
Epoch (UTC): 17 October 2019 01:48:40
Eccentricity: 0.0012981
inclination: 97.1747°
perigee height: 455 km
apogee height: 472 km
right ascension of ascending node: 182.1299°
argument of perigee: 53.0183°
revolutions per day: 15.34034192
mean anomaly at epoch: 54.4052°
orbit number at epoch: 19395

The dashed part of the orbit path shows where the satellite is in the earth's shadow,  

DLR